GMT,Max TemperatureF,Mean TemperatureF,Min TemperatureF,Max Dew PointF,MeanDew PointF,Min DewpointF,Max Humidity, Mean Humidity, Min Humidity, Max Sea Level PressureIn, Mean Sea Level PressureIn, Min Sea Level PressureIn, Max VisibilityMiles, Mean VisibilityMiles, Min VisibilityMiles, Max Wind SpeedMPH, Mean Wind SpeedMPH, Max Gust SpeedMPH,PrecipitationIn, CloudCover, Events, WindDirDegrees
2012-10-1,59,55,51,55,52,48,100,89,77,29.86,29.81,29.77,6,6,4,15,11,26,0.00,4,Rain,203
2012-10-2,60,54,48,52,50,46,100,88,68,29.80,29.70,29.56,6,6,4,20,11,32,0.00,3,Rain,189
2012-10-3,57,50,44,50,44,41,94,80,55,29.65,29.61,29.59,6,6,6,17,10,30,0.00,3,Rain,212
2012-10-4,57,50,42,48,44,41,94,81,63,29.77,29.70,29.62,6,6,6,13,9,,0.00,3,Rain,217
2012-10-5,53,50,46,48,47,45,100,90,72,29.80,29.69,29.53,6,6,3,13,8,,0.00,3,Rain,219
2012-10-6,57,49,41,48,44,41,100,83,59,30.04,29.91,29.80,6,6,6,8,5,,0.00,3,Fog-Rain,288
2012-10-7,55,46,37,46,43,37,100,88,63,30.21,30.15,30.06,6,4,0,7,3,,0.00,3,Fog,209
2012-10-8,55,48,41,52,48,41,100,93,82,30.12,29.98,29.89,6,5,2,8,5,,0.00,6,Rain,80
2012-10-9,53,47,41,46,43,41,100,82,67,30.06,30.02,29.98,6,5,1,10,7,,0.00,5,,68
2012-10-10,55,50,46,48,44,41,88,80,72,30.04,29.96,29.86,6,6,6,10,6,,0.00,6,,124
2012-10-11,55,50,44,55,49,43,100,91,82,29.86,29.61,29.42,6,4,2,14,8,,0.00,6,Rain,123
2012-10-12,55,47,39,55,43,37,100,80,58,29.74,29.63,29.44,6,6,5,18,12,29,0.00,3,Rain,252
2012-10-13,50,44,37,45,41,37,100,89,71,29.68,29.64,29.62,6,6,3,13,6,,0.00,4,Rain,269
2012-10-14,51,40,30,43,37,30,100,86,62,29.62,29.60,29.59,6,6,6,12,4,,0.00,2,Fog,298
2012-10-15,53,45,37,48,44,37,100,91,67,29.62,29.53,29.36,6,6,3,13,5,,0.00,3,Fog-Rain,200
2012-10-16,55,48,41,50,41,37,100,76,51,29.59,29.45,29.27,6,6,3,25,14,39,0.00,3,Rain,221
2012-10-17,59,50,42,50,47,41,100,84,59,29.53,29.38,29.24,6,6,3,20,11,36,0.00,2,Rain,162
2012-10-18,60,54,48,52,49,46,100,87,59,29.68,29.50,29.39,6,6,6,17,10,28,0.00,3,Rain,166
2012-10-19,55,48,41,52,48,41,100,93,77,29.83,29.75,29.68,6,6,0,7,4,,0.00,3,Fog-Rain,162
2012-10-20,55,50,44,50,48,43,100,92,77,30.09,29.97,29.80,6,4,0,9,6,21,0.00,4,Fog,194
2012-10-21,53,45,37,50,44,37,100,95,77,30.12,30.10,30.06,6,3,0,9,3,,0.00,5,Fog-Rain,33
2012-10-22,55,52,50,54,52,50,100,98,94,30.24,30.15,30.09,6,2,0,9,8,,0.00,7,Fog-Rain,39
2012-10-23,55,53,51,54,53,52,100,99,94,30.30,30.26,30.24,2,1,0,10,7,,0.00,8,Fog,30
2012-10-24,55,54,51,54,54,52,100,99,94,30.24,30.14,30.09,5,2,1,13,10,,0.00,7,Rain,44
2012-10-25,51,48,46,52,46,41,100,89,81,30.09,30.06,30.04,6,5,1,15,11,,0.00,7,Rain,51
2012-10-26,46,42,35,43,35,27,93,76,61,30.06,29.99,29.92,6,6,6,16,12,28,0.00,4,,22
2012-10-27,46,38,30,36,31,27,93,79,62,30.18,30.09,29.98,6,6,6,20,11,31,0.00,2,,324
2012-10-28,48,42,35,46,40,32,100,92,87,30.15,29.91,29.77,6,6,4,13,8,,0.00,4,Rain,217
2012-10-29,53,48,41,48,44,39,100,89,76,29.74,29.74,29.71,6,6,6,12,9,,0.00,4,,250
2012-10-30,50,44,37,43,39,37,100,82,66,29.74,29.61,29.39,6,6,6,12,7,,0.00,4,,251
2012-10-31,51,46,42,46,42,39,100,85,76,29.39,29.07,28.85,6,6,4,16,9,30,0.00,5,Rain,197